N5TM-4 Weather Reports


Display with metric or nautical units.
time (UTC)temp
F
wind
direction
speed
MPH
gust
MPH
rain 1hr
in
rain 24hr
in
rain mn
in
humidity
%
barometer
mb
20260831050545 81 163 0.0 2.0 0.00 0.00 0.00 81 1015.5
20260831050043 81 163 0.0 3.0 0.00 0.00 0.00 81 1015.4
20260831045543 81 163 0.0 3.0 0.00 0.00 0.00 81 1015.4
20260831045043 81 163 0.0 2.0 0.00 0.00 0.00 81 1015.4
20260831044551 81 163 0.0 5.0 0.00 0.00 0.00 81 1015.4
20260831044043 81 163 2.0 5.0 0.00 0.00 0.00 81 1015.5
20260831043542 81 163 2.0 4.0 0.00 0.00 0.00 80 1015.4
20260831043044 81 163 0.0 5.0 0.00 0.00 0.00 80 1015.4
20260831042544 81 163 1.0 5.0 0.00 0.00 0.00 80 1015.3
20260831042042 81 175 0.0 4.0 0.00 0.00 0.00 79 1015.3
20260831041549 81 175 1.0 4.0 0.00 0.00 0.00 79 1015.3
20260831041045 81 174 1.0 4.0 0.00 0.00 0.00 79 1015.3
20260831040542 81 163 2.0 4.0 0.00 0.00 0.00 79 1015.3
20260831040042 82 163 1.0 5.0 0.00 0.00 0.00 78 1015.2
20260831035544 82 163 0.0 5.0 0.00 0.00 0.00 78 1015.2
20260831035041 82 163 2.0 6.0 0.00 0.00 0.00 77 1015.2
20260831034541 82 174 2.0 6.0 0.00 0.00 0.00 77 1015.2
20260831034041 82 167 3.0 5.0 0.00 0.00 0.00 76 1015.1
20260831033541 82 166 2.0 5.0 0.00 0.00 0.00 76 1015.0
20260831033040 83 165 2.0 5.0 0.00 0.00 0.00 75 1014.9
20260831032540 83 175 1.0 5.0 0.00 0.00 0.00 75 1014.9
20260831032040 83 162 2.0 5.0 0.00 0.00 0.00 74 1014.9
20260831031540 83 159 0.0 6.0 0.00 0.00 0.00 74 1014.8
20260831031043 83 158 2.0 6.0 0.00 0.00 0.00 74 1014.8
20260831030541 83 171 4.0 6.0 0.00 0.00 0.00 73 1014.8
20260831030039 83 152 3.0 7.0 0.00 0.00 0.00 73 1014.6
20260831025539 84 134 4.0 7.0 0.00 0.00 0.00 72 1014.6
20260831025039 84 197 3.0 7.0 0.00 0.00 0.00 72 1014.5
20260831024541 84 162 3.0 7.0 0.00 0.00 0.00 71 1014.5
20260831024038 84 171 4.0 7.0 0.00 0.00 0.00 71 1014.4
20260831023539 84 189 2.0 8.0 0.00 0.00 0.00 70 1014.3
20260831023038 84 141 3.0 7.0 0.00 0.00 0.00 70 1014.2
20260831022538 85 168 2.0 6.0 0.00 0.00 0.00 69 1014.1
20260831022039 85 167 3.0 6.0 0.00 0.00 0.00 69 1014.1
20260831021540 85 177 3.0 7.0 0.00 0.00 0.00 68 1014.1
20260831021043 85 125 3.0 7.0 0.00 0.00 0.00 68 1014.0
20260831020538 85 157 4.0 8.0 0.00 0.00 0.00 68 1013.8
20260831020037 85 178 3.0 8.0 0.00 0.00 0.00 67 1013.8
20260831015537 86 155 3.0 6.0 0.00 0.00 0.00 66 1013.8
20260831015036 86 140 2.0 7.0 0.00 0.00 0.00 66 1013.7
20260831014553 86 171 4.0 9.0 0.00 0.00 0.00 65 1013.6
20260831014036 86 165 3.0 9.0 0.00 0.00 0.00 65 1013.6
20260831013536 86 180 4.0 8.0 0.00 0.00 0.00 64 1013.7
20260831013045 87 172 4.0 8.0 0.00 0.00 0.00 64 1013.7
20260831012536 87 157 4.0 10.0 0.00 0.00 0.00 63 1013.7
20260831012035 87 167 5.0 10.0 0.00 0.00 0.00 63 1013.6
20260831011536 87 170 5.0 8.0 0.00 0.00 0.00 62 1013.6
20260831011035 87 163 4.0 9.0 0.00 0.00 0.00 61 1013.6
20260831010535 88 160 4.0 9.0 0.00 0.00 0.00 60 1013.6
20260831010035 88 167 3.0 6.0 0.00 0.00 0.00 59 1013.6
20260831005535 88 123 2.0 8.0 0.00 0.00 0.00 59 1013.6
20260831005034 89 169 4.0 8.0 0.00 0.00 0.00 58 1013.5
20260831004538 89 129 3.0 9.0 0.00 0.00 0.00 57 1013.5
20260831004036 89 178 5.0 10.0 0.00 0.00 0.00 57 1013.4
20260831003534 90 150 3.0 9.0 0.00 0.00 0.00 57 1013.5
20260831003042 90 182 6.0 10.0 0.00 0.00 0.00 56 1013.4
20260831002538 90 178 5.0 9.0 0.00 0.00 0.00 55 1013.4
20260831002033 91 146 6.0 10.0 0.00 0.00 0.00 55 1013.2
20260831001539 91 163 4.0 13.0 0.00 0.00 0.00 54 1013.3
20260831001033 91 148 5.0 13.0 0.00 0.00 0.00 54 1013.2
20260831000533 91 155 5.0 12.0 0.00 0.00 0.00 53 1013.2
20260831000040 92 189 5.0 12.0 0.00 0.00 0.00 53 1013.1
20260830235536 92 128 4.0 12.0 0.00 0.00 0.00 53 1013.1
20260830235035 93 161 5.0 9.0 0.00 0.00 0.00 52 1013.2
20260830234532 93 199 3.0 11.0 0.00 0.00 0.00 51 1013.2
20260830234032 93 183 7.0 11.0 0.00 0.00 0.00 50 1013.2
20260830233533 93 157 6.0 11.0 0.00 0.00 0.00 51 1013.2
20260830233036 94 171 4.0 9.0 0.00 0.00 0.00 51 1013.0
20260830232534 94 171 4.0 11.0 0.00 0.00 0.00 50 1013.1
20260830232032 94 167 5.0 14.0 0.00 0.00 0.00 49 1013.0
20260830231533 95 190 7.0 14.0 0.00 0.00 0.00 49 1012.9
20260830231032 95 163 4.0 11.0 0.00 0.00 0.00 48 1013.0
20260830230531 95 156 3.0 6.0 0.00 0.00 0.00 47 1013.0
20260830230030 95 164 3.0 10.0 0.00 0.00 0.00 46 1012.9
20260830225530 95 189 3.0 10.0 0.00 0.00 0.00 46 1012.9
20260830225030 95 146 4.0 8.0 0.00 0.00 0.00 46 1012.9
20260830224530 95 158 2.0 7.0 0.00 0.00 0.00 46 1013.0
20260830224030 95 114 3.0 7.0 0.00 0.00 0.00 45 1013.0
20260830223531 95 218 4.0 11.0 0.00 0.00 0.00 45 1013.1
20260830223029 95 174 3.0 11.0 0.00 0.00 0.00 45 1013.0
20260830222530 96 160 2.0 9.0 0.00 0.00 0.00 45 1013.1
20260830222031 96 180 3.0 9.0 0.00 0.00 0.00 45 1013.1
20260830221529 96 179 2.0 10.0 0.00 0.00 0.00 44 1013.1
20260830221029 96 171 5.0 11.0 0.00 0.00 0.00 44 1013.0
20260830220529 96 169 4.0 8.0 0.00 0.00 0.00 43 1013.0
20260830220028 96 161 1.0 8.0 0.00 0.00 0.00 43 1013.0
20260830215528 96 123 4.0 10.0 0.00 0.00 0.00 43 1013.0
20260830215027 96 165 5.0 9.0 0.00 0.00 0.00 43 1013.1
20260830214539 96 133 3.0 9.0 0.00 0.00 0.00 42 1013.2
20260830214026 97 140 3.0 9.0 0.00 0.00 0.00 42 1013.3
20260830213525 97 270 3.0 11.0 0.00 0.00 0.00 42 1013.3
20260830213025 97 131 5.0 11.0 0.00 0.00 0.00 41 1013.4
20260830212525 97 202 2.0 10.0 0.00 0.00 0.00 42 1013.4
20260830212024 97 174 4.0 10.0 0.00 0.00 0.00 40 1013.5
20260830211524 96 151 3.0 14.0 0.00 0.00 0.00 41 1013.7
20260830211023 96 74 5.0 13.0 0.00 0.00 0.00 41 1013.7
20260830210523 96 167 7.0 13.0 0.00 0.00 0.00 41 1013.7
20260830210029 96 182 5.0 12.0 0.00 0.00 0.00 42 1013.8
20260830205523 96 98 5.0 10.0 0.00 0.00 0.00 41 1013.9
20260830205020 97 133 3.0 9.0 0.00 0.00 0.00 39 1013.9
20260830204527 97 217 3.0 9.0 0.00 0.00 0.00 39 1014.0
20260830204019 98 162 3.0 9.0 0.00 0.00 0.00 41 1014.0
20260830203524 97 157 4.0 9.0 0.00 0.00 0.00 41 1014.1
20260830203020 96 39 2.0 9.0 0.00 0.00 0.00 43 1014.1
20260830202518 97 123 3.0 9.0 0.00 0.00 0.00 42 1014.2
20260830202017 98 157 4.0 8.0 0.00 0.00 0.00 40 1014.3
20260830201516 99 114 3.0 8.0 0.00 0.00 0.00 39 1014.4
20260830201016 99 195 1.0 7.0 0.00 0.00 0.00 40 1014.5
20260830200514 98 69 1.0 7.0 0.00 0.00 0.00 40 1014.5
20260830200013 97 132 1.0 8.0 0.00 0.00 0.00 41 1014.7
20260830195512 96 181 2.0 10.0 0.00 0.00 0.00 42 1014.8
20260830195012 96 126 5.0 10.0 0.00 0.00 0.00 42 1014.8
20260830194518 98 102 6.0 9.0 0.00 0.00 0.00 39 1015.0
20260830194010 98 123 3.0 8.0 0.00 0.00 0.00 40 1015.1
20260830193509 98 61 1.0 6.0 0.00 0.00 0.00 39 1015.1
20260830193009 98 161 1.0 9.0 0.00 0.00 0.00 40 1015.2
20260830192507 97 167 5.0 9.0 0.00 0.00 0.00 39 1015.3
20260830192008 98 143 3.0 9.0 0.00 0.00 0.00 42 1015.4
20260830191509 97 263 3.0 9.0 0.00 0.00 0.00 41 1015.4
20260830191006 98 161 5.0 9.0 0.00 0.00 0.00 39 1015.6
20260830190506 99 161 4.0 9.0 0.00 0.00 0.00 41 1015.6
20260830190005 98 180 2.0 7.0 0.00 0.00 0.00 42 1015.6
20260830185509 97 153 2.0 6.0 0.00 0.00 0.00 43 1015.7
20260830185008 98 119 2.0 9.0 0.00 0.00 0.00 44 1015.7
20260830184504 98 161 3.0 9.0 0.00 0.00 0.00 43 1015.8
20260830184004 101 173 1.0 8.0 0.00 0.00 0.00 42 1015.8
20260830183503 99 211 2.0 8.0 0.00 0.00 0.00 43 1015.9
20260830183006 101 132 2.0 4.0 0.00 0.00 0.00 41 1016.1
20260830182502 99 201 1.0 6.0 0.00 0.00 0.00 44 1016.1
20260830182002 97 200 1.0 8.0 0.00 0.00 0.00 46 1016.2
20260830181503 96 88 2.0 7.0 0.00 0.00 0.00 49 1016.3
20260830181003 95 84 2.0 7.0 0.00 0.00 0.00 48 1016.4
20260830180505 96 122 4.0 7.0 0.00 0.00 0.00 50 1016.4
20260830180001 95 124 4.0 8.0 0.00 0.00 0.00 49 1016.6
20260830175501 96 95 4.0 8.0 0.00 0.00 0.00 48 1016.6
20260830175104 97 66 2.0 6.0 0.00 0.00 0.00 47 1016.7
20260830175002 97 49 1.0 6.0 0.00 0.00 0.00 48 1016.7
20260830174600 96 74 3.0 6.0 0.00 0.00 0.00 49 1016.8
20260830174059 95 184 2.0 8.0 0.00 0.00 0.00 49 1016.9
20260830173601 96 125 4.0 8.0 0.00 0.00 0.00 48 1017.0
20260830173100 98 171 3.0 8.0 0.00 0.00 0.00 47 1017.0
20260830172604 98 107 3.0 6.0 0.00 0.00 0.00 47 1017.0
20260830172059 100 134 1.0 5.0 0.00 0.00 0.00 45 1017.0
20260830171609 99 296 2.0 5.0 0.00 0.00 0.00 47 1017.1
20260830171059 97 175 1.0 8.0 0.00 0.00 0.00 49 1017.1
20260830170559 95 135 1.0 8.0 0.00 0.00 0.00 51 1017.1
20260830170100 95 103 2.0 8.0 0.00 0.00 0.00 52 1017.2
20260830165557 94 101 2.0 8.0 0.00 0.00 0.00 51 1017.2
20260830165057 95 165 3.0 8.0 0.00 0.00 0.00 52 1017.2
20260830164604 96 165 4.0 7.0 0.00 0.00 0.00 49 1017.3
20260830164057 98 211 0.0 2.0 0.00 0.00 0.00 49 1017.3
20260830163557 98 211 0.0 6.0 0.00 0.00 0.00 48 1017.4
20260830163057 99 205 4.0 6.0 0.00 0.00 0.00 46 1017.4
20260830162556 101 204 0.0 4.0 0.00 0.00 0.00 45 1017.4
20260830162057 101 309 1.0 4.0 0.00 0.00 0.00 45 1017.4
20260830161606 100 311 1.0 3.0 0.00 0.00 0.00 48 1017.4
20260830161052 98 295 1.0 4.0 0.00 0.00 0.00 51 1017.3
20260830160553 97 293 1.0 5.0 0.00 0.00 0.00 53 1017.5
20260830160051 96 169 2.0 5.0 0.00 0.00 0.00 50 1017.4
20260830155550 98 172 1.0 3.0 0.00 0.00 0.00 51 1017.4
20260830155049 96 188 1.0 4.0 0.00 0.00 0.00 52 1017.4
20260830154550 96 269 0.0 4.0 0.00 0.00 0.00 54 1017.5
20260830154050 95 308 1.0 4.0 0.00 0.00 0.00 56 1017.4
20260830153550 96 247 0.0 3.0 0.00 0.00 0.00 56 1017.4
20260830153046 95 217 0.0 3.0 0.00 0.00 0.00 57 1017.4
20260830152545 95 264 0.0 3.0 0.00 0.00 0.00 58 1017.3
20260830152044 94 178 0.0 4.0 0.00 0.00 0.00 59 1017.3
20260830151544 93 134 1.0 4.0 0.00 0.00 0.00 60 1017.1
20260830151044 92 146 2.0 4.0 0.00 0.00 0.00 63 1017.2
20260830150543 94 178 2.0 6.0 0.00 0.00 0.00 61 1017.3
20260830150042 94 153 0.0 6.0 0.00 0.00 0.00 62 1017.3
20260830145545 94 309 0.0 4.0 0.00 0.00 0.00 62 1017.3
20260830145040 93 306 2.0 4.0 0.00 0.00 0.00 64 1017.3
20260830144539 92 173 1.0 4.0 0.00 0.00 0.00 66 1017.3
20260830144037 91 173 1.0 4.0 0.00 0.00 0.00 68 1017.3
20260830143537 90 144 1.0 4.0 0.00 0.00 0.00 69 1017.4
20260830143049 90 159 1.0 5.0 0.00 0.00 0.00 68 1017.4
20260830142535 90 158 0.0 5.0 0.00 0.00 0.00 70 1017.4
20260830142034 89 156 1.0 5.0 0.00 0.00 0.00 69 1017.3
20260830141539 89 155 0.0 4.0 0.00 0.00 0.00 71 1017.2
20260830141033 88 175 0.0 4.0 0.00 0.00 0.00 74 1017.2
20260830140530 87 172 0.0 3.0 0.00 0.00 0.00 74 1017.2
20260830140030 87 172 0.0 3.0 0.00 0.00 0.00 74 1017.3
20260830135529 87 184 0.0 3.0 0.00 0.00 0.00 76 1017.3
20260830135028 86 184 0.0 3.0 0.00 0.00 0.00 76 1017.3
20260830134537 86 209 0.0 2.0 0.00 0.00 0.00 77 1017.2
20260830134029 85 209 0.0 2.0 0.00 0.00 0.00 79 1017.0
20260830133524 84 209 0.0 2.0 0.00 0.00 0.00 82 1017.1
20260830133022 82 209 0.0 3.0 0.00 0.00 0.00 84 1017.0
20260830132521 81 209 0.0 3.0 0.00 0.00 0.00 86 1017.0
20260830132020 80 209 0.0 2.0 0.00 0.00 0.00 89 1017.1
20260830131520 79 209 0.0 1.0 0.00 0.00 0.00 92 1017.0
20260830131019 79 209 0.0 1.0 0.00 0.00 0.00 93 1017.1
20260830130519 78 209 0.0 1.0 0.00 0.00 0.00 93 1017.0
20260830130019 77 209 0.0 1.0 0.00 0.00 0.00 93 1017.0
20260830125517 77 209 0.0 1.0 0.00 0.00 0.00 93 1016.9
20260830125018 76 209 0.0 0.0 0.00 0.00 0.00 93 1016.9
20260830124516 76 209 0.0 1.0 0.00 0.00 0.00 92 1016.8
20260830124015 76 209 0.0 1.0 0.00 0.00 0.00 92 1016.8
20260830123515 75 209 0.0 0.0 0.00 0.00 0.00 91 1016.7
20260830123015 75 209 0.0 0.0 0.00 0.00 0.00 91 1016.7
20260830122514 75 209 0.0 0.0 0.00 0.00 0.00 91 1016.7
20260830122014 75 209 0.0 0.0 0.00 0.00 0.00 91 1016.7
20260830121514 75 209 0.0 0.0 0.00 0.00 0.00 91 1016.6
20260830121013 75 209 0.0 0.0 0.00 0.00 0.00 91 1016.6
20260830120513 75 209 0.0 0.0 0.00 0.00 0.00 91 1016.5
20260830120013 75 209 0.0 1.0 0.00 0.00 0.00 91 1016.5
20260830115512 75 209 0.0 1.0 0.00 0.00 0.00 91 1016.5
20260830115011 75 209 0.0 1.0 0.00 0.00 0.00 91 1016.4
20260830114511 75 209 0.0 1.0 0.00 0.00 0.00 91 1016.4
20260830114012 76 209 0.0 1.0 0.00 0.00 0.00 91 1016.3
20260830113510 76 209 0.0 1.0 0.00 0.00 0.00 91 1016.3
20260830113011 76 209 0.0 1.0 0.00 0.00 0.00 91 1016.3
20260830112513 76 209 0.0 1.0 0.00 0.00 0.00 91 1016.2
20260830112009 75 209 0.0 0.0 0.00 0.00 0.00 90 1016.2
20260830111509 76 209 0.0 0.0 0.00 0.00 0.00 90 1016.2
20260830111009 76 209 0.0 0.0 0.00 0.00 0.00 90 1016.2
20260830110508 76 209 0.0 0.0 0.00 0.00 0.00 90 1016.2
20260830110008 76 209 0.0 0.0 0.00 0.00 0.00 90 1016.1
20260830105509 76 209 0.0 0.0 0.00 0.00 0.00 91 1016.2
20260830105006 76 209 0.0 1.0 0.00 0.00 0.00 91 1016.2
20260830104506 76 209 0.0 1.0 0.00 0.00 0.00 91 1016.1
20260830104007 76 209 0.0 1.0 0.00 0.00 0.00 91 1016.1
20260830103506 76 209 0.0 1.0 0.00 0.00 0.00 90 1016.1
20260830103007 76 209 0.0 1.0 0.00 0.00 0.00 90 1016.0
20260830102506 76 209 0.0 1.0 0.00 0.00 0.00 90 1015.9
20260830102005 76 209 0.0 1.0 0.00 0.00 0.00 90 1015.9
20260830101505 76 209 0.0 0.0 0.00 0.00 0.00 89 1015.9
20260830101005 76 209 0.0 0.0 0.00 0.00 0.00 89 1015.8
20260830100505 76 209 0.0 0.0 0.00 0.00 0.00 89 1015.8
20260830100006 76 209 0.0 1.0 0.00 0.00 0.00 89 1015.8
20260830095504 76 209 0.0 1.0 0.00 0.00 0.00 89 1015.7
20260830095004 76 209 0.0 0.0 0.00 0.00 0.00 88 1015.7
20260830094506 76 209 0.0 1.0 0.00 0.00 0.00 88 1015.7
20260830094002 76 209 0.0 1.0 0.00 0.00 0.00 88 1015.8
20260830093502 76 209 0.0 0.0 0.00 0.00 0.00 88 1015.8
20260830093002 76 209 0.0 0.0 0.00 0.00 0.00 88 1015.7
20260830092503 76 209 0.0 0.0 0.00 0.00 0.00 88 1015.7
20260830092001 76 209 0.0 0.0 0.00 0.00 0.00 88 1015.6
20260830091503 77 209 0.0 0.0 0.00 0.00 0.00 88 1015.7
20260830091101 77 209 0.0 0.0 0.00 0.00 0.00 88 1015.8
20260830090601 77 209 0.0 0.0 0.00 0.00 0.00 88 1015.8
20260830090103 77 209 0.0 1.0 0.00 0.00 0.00 88 1015.9
20260830085558 77 209 0.0 0.0 0.00 0.00 0.00 88 1015.8
20260830085058 77 209 0.0 0.0 0.00 0.00 0.00 88 1015.9
20260830084604 77 209 0.0 0.0 0.00 0.00 0.00 88 1015.8
20260830084057 77 209 0.0 1.0 0.00 0.00 0.00 88 1015.8
20260830083557 77 209 0.0 1.0 0.00 0.00 0.00 88 1015.9
20260830083057 77 209 0.0 1.0 0.00 0.00 0.00 88 1016.0
20260830082557 77 209 0.0 0.0 0.00 0.00 0.00 87 1016.0
20260830082055 77 209 0.0 0.0 0.00 0.00 0.00 87 1015.9
20260830081606 77 209 0.0 1.0 0.00 0.00 0.00 87 1016.0
20260830081054 77 209 0.0 1.0 0.00 0.00 0.00 87 1015.9
20260830080554 77 209 0.0 1.0 0.00 0.00 0.00 87 1016.1
20260830080054 78 209 0.0 1.0 0.00 0.00 0.00 87 1016.0
20260830075553 78 209 0.0 1.0 0.00 0.00 0.00 87 1016.0
20260830075052 78 209 0.0 1.0 0.00 0.00 0.00 87 1016.0
20260830074607 78 209 0.0 1.0 0.00 0.00 0.00 86 1016.0
20260830074052 78 209 0.0 1.0 0.00 0.00 0.00 86 1016.0
20260830073553 78 209 0.0 1.0 0.00 0.00 0.00 86 1016.1
20260830073053 78 209 0.0 1.0 0.00 0.00 0.00 86 1016.2
20260830072551 78 209 0.0 2.0 0.00 0.00 0.00 86 1016.2
20260830072051 78 209 0.0 2.0 0.00 0.00 0.00 85 1016.2
20260830071650 78 209 0.0 1.0 0.00 0.00 0.00 85 1016.2
20260830071050 78 209 0.0 0.0 0.00 0.00 0.00 85 1016.2
20260830070551 79 209 0.0 1.0 0.00 0.00 0.00 85 1016.2
20260830070048 79 209 0.0 1.0 0.00 0.00 0.00 85 1016.2
20260830065550 79 209 0.0 1.0 0.00 0.00 0.00 85 1016.2
20260830065048 79 209 0.0 1.0 0.00 0.00 0.00 85 1016.2
20260830064547 79 209 0.0 1.0 0.00 0.00 0.00 85 1016.2
20260830064047 79 209 0.0 1.0 0.00 0.00 0.00 85 1016.1
20260830063547 79 209 0.0 1.0 0.00 0.00 0.00 85 1016.1
20260830063048 79 209 0.0 2.0 0.00 0.00 0.00 85 1016.1
20260830062546 79 209 0.0 2.0 0.00 0.00 0.00 85 1016.2
20260830062046 79 209 0.0 2.0 0.00 0.00 0.00 84 1016.1
20260830061546 79 209 0.0 2.0 0.00 0.00 0.00 84 1016.1
20260830061046 79 209 0.0 3.0 0.00 0.00 0.00 84 1016.1
20260830060545 79 209 0.0 3.0 0.00 0.00 0.00 84 1016.1
20260830060052 80 209 1.0 4.0 0.00 0.00 0.00 84 1016.1
20260830055547 80 209 2.0 4.0 0.00 0.00 0.00 84 1016.1
20260830055043 80 190 0.0 3.0 0.00 0.00 0.00 84 1016.0
20260830054551 80 192 1.0 4.0 0.00 0.00 0.00 83 1016.0
20260830054045 80 192 0.0 4.0 0.00 0.00 0.00 83 1016.1
20260830053542 80 204 1.0 4.0 0.00 0.00 0.00 83 1016.1
20260830053047 80 219 0.0 2.0 0.00 0.00 0.00 82 1016.0
20260830052540 80 219 0.0 3.0 0.00 0.00 0.00 82 1016.1
20260830052043 80 239 0.0 3.0 0.00 0.00 0.00 82 1016.1
20260830051541 80 239 0.0 4.0 0.00 0.00 0.00 82 1016.1
20260830051039 80 239 1.0 4.0 0.00 0.00 0.00 82 1016.1